COSMOS 1045

Satellite information

Favourite Embed

Satellite Type and Status

PAYLOADIN ORBIT

Key statistics

Satellite COSMOS 1045 at a glance.

Uptime

17054

Days in orbit

Revolutions

≈ 12.0

Per day

Orbit

LEO

Low Earth Orbit

Inclination

82.5

Latest

Satellite identification and parameters

Extended collection of information and parameters for COSMOS 1045.

Object identification

Identified? True

Debris? False

Object name: COSMOS 1045

International designator: 1978-100A

Object number (NORAD): 11084

Object ID (CCSDS): 11084

Country: COMMONWEALTH OF INDEPENDENT STATES (CIS)

Current information (Y/N): Y

RCS size: LARGE

Orbital parameters

Period: 120.324 minutes

Inclination: 82.5462 deg

SMA: 8073.498 km

Apoapsis: 1704.543 km

Periapsis: 1686.184 km

RAAN: 238.6888 deg

Eccentricy: 0.001137

Argument of periapsis: 305.3589 deg

Mean anomaly: 176.5519 deg

Mean motion: 11.9676842 rev/day

Mean motion (dot): 0.00000013 rev/day2

B* drag term: 0.00005633 1/REarth

Two-line elements (TLE)

Creation date: July 4, 2025, 6:39 p.m.

Reference frame: TEME

Reference center: EARTH

Epoch: July 4, 2025, 2:29 p.m. UTC

TLE line 0: 0 COSMOS 1045

TLE line 1: 1 11084U 78100A 25185.60409593 .00000013 00000-0 56330-4 0 9992

TLE line 2: 2 11084 82.5462 238.6888 0011370 305.3589 176.5519 11.96768420 39685

Live tracking on map

Real-time ground track for satellite COSMOS 1045.

In-orbit conjunctions

There are no conjunctions computed for COSMOS 1045, at the moment. Check back to stay up to date, as we update our databases every day.

Go to all conjunctions

Associated space launch

Mass model of the Meteor-2 meteorological satellite

COSMOS 1045 was lifted into orbit during the mission ‘Tsiklon-3 | Meteor-2-GVM’, on board a Tsiklon-3 space rocket.

The launch took place on Oct. 26, 1978, 7 a.m. from 32/2.

For more information about the launch, click the button.

Launch to space Tsiklon-3 | Meteor-2-GVM
Tsiklon-3 | Meteor-2-GVM

Agency: N/A

Status: Launch Successful

Launch date: Oct. 26, 1978, 7 a.m. UTC

Rocket: Tsiklon-3

Launch pad: 32/2

Location: Plesetsk Cosmodrome, Russian Federation

...

Latest news about this satellite

There are no fresh news available about this satellite. Check back as we update our databases every day.


Newsletter sign-up

Weekly statistics, charts and insights to help you stay on top of the space industry.